STARLINK-1502, 45764

Orbit data source: Space-Track

STARLINK-1502, 45764 is a payload satellite owned by SpaceX/Seattle (US) in LEO that was launched on Sat, 13 Jun 2020 UTC via an FALCON 9 launch vehicle from the Air Force Eastern Test Range (AFETR). Payload-class satellites include a variety of spacecraft equipped with specific instruments for various scientific and technological missions. These include communications satellites like Starlink; space stations such as the ISS; scientific satellites like the Hubble; Earth observation satellites from companies like Planet Labs, Umbra, and HawkEye 360; GPS; miniature CubeSats for education and research; and military/defense satellites.

Loading next visibility...
Identifier
45764, 2020-038AL
Orbit
LEO
Last TLE update
1 day ago
Origin
Manufacturer
SpaceX/Seattle
Mission
Operational Commercial Communications
Bus & Motor
STARLINK, Unknown motor
Mass
260 kg wet, ~248 kg dry
Launch date (UTC)
2020-06-13 (5 years ago)
Launch vehicle
FALCON 9
Launch site
Air Force Eastern Test Range (AFETR)
Object type
Payload
Rocket body
Debris
Shape & HBR
Box + 1 Pan, 8.86 m
Radar Cross Section
13.562 m², Large (>1 m²)

Expand to show TLE details & history

TLE from 1 day ago
0 STARLINK-1502
1 45764U 20038AL  25188.13753790 -.00000093  00000-0  12672-4 0  9993
2 45764  53.0537 238.9448 0001287  86.2135 273.9001 15.06398099279473
Epoch: 2025-07-07T03:18Z
TLE epoch observation values (Epoch: 2025-07-07T03:18:03.274Z)
Latitude
-0.00003°
Longitude
-95.92006°
Altitude
548.036 km
Speed
7.589 km/s
True Right ascension
15h 55m 46s
True Declination
0° 00' 00"
Sunlit
Object was in full shadow at epoch
Visualization orbit readout
Latitude
-25.50682°
Longitude
-122.16415°
Altitude
555.131 km
Speed
7.584 km/s
Apparent Right ascension
11h 32m 37s
Apparent Declination
-42° 31' 37"
Sunlit
Object is in full shadow
Visualization observer readout
Local Sidereal Time
19:54:46
Azimuth
247.894° W
Elevation
-49.663°
Doppler factor
1
Orbital elements
Apogee altitude
548.38 km
Perigee altitude
546.597 km
Semi-major axis
6,925.625 km
Eccentricity
0.00013
Inclination
53.0537°
RAAN
238.9448°
Arg. of periapsis
86.2135°
True anomaly
Unknown
Mean anomaly
273.9001°
Eccentric anomaly
Unknown
Mean motion
3.76578 °/min
Orbital period
95.6 mins
BSTAR
0.000012672
Loading maneuver chart data...
Loading SW <> Apogee altitude chart data...

STARLINK-1502 Visibility forecast

Observer location: undefined°, undefined°

Span
Click to sort rows by Start time (UTC) header in descending order
Start Az.
Max El. time (UTC)
Max El. Az.
Max El.
End time (UTC)
End Az.
4 mins2025-07-08 08:16:09.153Z315.219° NNW2025-07-08 08:18:09.153Z348.75° N15.715°2025-07-08 08:20:09.153Z20.237° NNE
5 mins2025-07-08 11:37:09.153Z338.39° N2025-07-08 11:39:09.153Z19.356° NNE25.843°2025-07-08 11:42:09.153Z81.914° E
5 mins2025-07-08 13:17:09.153Z286.613° WNW2025-07-08 13:19:09.153Z223.082° SW36.849°2025-07-08 13:22:09.153Z154.888° SSE
5 mins2025-07-09 04:50:09.153Z175.07° S2025-07-09 04:52:09.153Z125.972° SE27.02°2025-07-09 04:55:09.153Z72.146° E
6 mins2025-07-09 06:29:09.153Z269.953° W2025-07-09 06:31:09.153Z317.901° NNW32.218°2025-07-09 06:35:09.153Z38.016° NE
|